Location: Cubitt Town
(51.4833°N, 0.0000°E)
Time: 03:03:11
(UTC+00:00)

Cosmos 1092 Rocket - Pass Details

Date: 15 May 2026
Orbit: 953 x 994 km, 83.0° (Epoch: 8 June)

Event Time Altitude Azimuth Distance (km) Brightness Sun altitude
Rises 21:32:33 0° 352° (N) 3,648 8.2 -12.8°
Reaches altitude 10° 21:35:10 10° 359° (N) 2,702 7.2 -13.0°
Maximum altitude 21:41:06 47° 72° (ENE) 1,265 4.5 -13.5°
Enters shadow 21:45:21 19° 138° (SE) 2,130 5.2 -13.9°
